#timestamp,LO_Frequency,Hit,StdDev 
1630688415.7,286046998.2,N
1630688435.5,286047000.7,N
1630688455.4,286046998.6,N
1630688475.2,286047000.8,N
1630688495.1,286046998.7,N
1630688496.0,286046998.7,N
1630688515.8,286046998.7,N
1630688535.6,286046999.0,N
1630688555.5,286046998.3,N
1630688575.3,286046998.4,N
1630688595.1,286046998.3,N
1630688615.9,286046998.5,N
1630688635.7,286046998.6,N
1630688655.6,286046998.9,N
1630688675.4,286046999.0,N
1630688695.2,286046998.6,N
1630688715.1,286046999.3,N
1630688716.0,286046999.3,N
1630688735.8,286046998.3,N
1630688755.6,286046999.3,N
1630688775.5,286046999.5,N
1630688795.3,286046999.2,N
1630688815.2,286046999.1,N
1630688835.9,286046998.7,N
1630688855.7,286046999.4,N
1630688875.6,286046999.2,N
1630688895.4,286046999.6,N
1630688915.2,286046998.8,N
1630688935.1,286046998.7,N
1630688936.0,286046998.7,N
1630688955.8,286046999.5,N
1630688975.7,286046996.5,Y
1630688995.5,286047000.8,P
1630689015.3,286046998.3,N
1630689035.2,286046998.6,N
1630689055.0,286046998.2,N
1630689055.9,286046998.2,N
1630689075.7,286046998.6,N
1630689095.6,286046998.6,N
1630689115.4,286046998.3,N
1630689135.3,286046998.4,N
1630689155.1,286046998.9,N
1630689175.8,286046998.2,N
1630689195.7,286046998.9,N
1630689215.5,286046998.6,N
1630689235.4,286046998.8,N
1630689255.2,286046998.7,N
1630689275.0,286046998.1,Y
1630689275.9,286046998.1,P
1630689295.8,286047000.4,N
1630689315.6,286047000.4,N
1630689335.5,286047000.6,N
1630689355.3,286046999.9,N
1630689375.1,286047000.8,N
1630689395.9,286047001.0,N
1630689415.7,286047001.0,N
1630689435.5,286047000.6,N
1630689455.4,286047000.9,N
1630689475.2,286047000.9,N
1630689495.1,286047000.6,N
1630689496.0,286047000.6,N
1630689515.8,286047001.0,N
1630689535.6,286047000.9,N
1630689555.5,286047000.9,N
1630689575.3,286047000.9,N
1630689595.1,286047000.9,N
1630689615.9,286047000.9,N
1630689635.7,286047001.0,N
1630689655.6,286047000.7,N
1630689675.4,286047000.7,N
1630689695.2,286047000.5,N
1630689715.1,286047000.7,N
1630689716.0,286047000.7,N
1630689735.8,286047000.9,N
1630689755.6,286047000.6,N
1630689775.5,286047000.9,N
1630689795.3,286047000.8,N
1630689815.1,286047000.4,N
1630689835.9,286047001.0,N
1630689855.7,286047001.0,Y
1630689875.6,286046998.2,P
1630689895.4,286046998.5,N
1630689915.2,286046998.5,N
1630689935.1,286047000.6,N
1630689936.0,286047000.6,N
1630689955.8,286047001.2,N
1630689975.7,286047001.2,N
1630689995.5,286047001.1,N
1630690015.3,286047000.7,N
1630690035.2,286047000.9,N
1630690055.9,286047000.6,N
1630690075.7,286047000.9,N
1630690095.6,286047000.2,N
1630690115.4,286046999.9,N
1630690135.2,286046999.9,N
1630690155.1,286047002.3,N
1630690156.0,286047002.3,N
1630690175.8,286047002.8,N
1630690195.7,286047002.6,N
1630690215.5,286047002.2,N
1630690235.3,286047001.9,N
1630690255.2,286047002.5,N
1630690275.0,286047002.0,N
1630690275.9,286047002.0,N
1630690295.7,286047001.8,N
1630690315.6,286047001.4,N
1630690335.4,286047003.8,Y
1630690355.3,286047001.5,P
1630690375.1,286047001.4,P
1630690395.8,286047003.9,P
1630690415.7,286047003.8,Y
1630690435.5,286046999.7,P
1630690455.4,286047001.9,N
1630690475.2,286047001.9,N
1630690495.0,286047003.9,Y
1630690495.9,286047003.9,P
1630690515.8,286047002.3,N
1630690535.6,286047002.1,N
1630690555.4,286047002.1,N
1630690575.3,286047002.6,Y
1630690595.1,286047001.1,P
1630690615.9,286047000.9,N
1630690635.7,286047000.7,N
1630690655.5,286047001.0,N
1630690675.4,286047000.2,N
1630690695.2,286046999.8,N
1630690715.0,286046999.9,N
1630690716.0,286046999.9,N
1630690735.8,286047002.6,Y
1630690755.6,286047002.8,P
1630690775.5,286047000.5,N
1630690795.3,286047000.3,N
1630690815.1,286047000.1,N
1630690835.9,286047000.5,N
1630690855.7,286047000.0,N
1630690875.6,286046999.9,N
1630690895.4,286047002.4,N
1630690915.2,286047002.3,N
1630690935.1,286047000.1,N
1630690936.0,286047000.1,N
1630690955.8,286047000.1,N
1630690975.6,286047000.2,N
1630690995.5,286047002.7,N
1630691015.3,286047002.7,N
1630691035.2,286046999.9,N
1630691055.9,286047002.8,N
1630691075.7,286047002.8,N
1630691095.6,286046999.7,N
1630691115.4,286047000.1,N
1630691135.2,286047000.4,N
1630691155.1,286047000.1,N
1630691156.0,286047000.1,N
1630691175.8,286047000.9,N
1630691195.7,286047000.0,N
1630691215.5,286047000.4,N
1630691235.3,286047001.1,N
1630691255.2,286046999.9,N
1630691275.0,286047000.3,N
1630691275.9,286047000.3,N
1630691295.7,286046999.9,N
1630691315.6,286046999.9,N
1630691335.4,286047000.3,N
1630691355.3,286047000.6,N
1630691375.1,286047000.8,N
1630691376.0,286047000.8,N
1630691395.8,286047001.1,N
1630691415.7,286047001.2,N
1630691435.5,286047001.2,N
1630691455.3,286046998.5,N
1630691475.2,286047001.1,N
1630691495.0,286047000.8,N
1630691495.9,286047000.8,N
1630691515.8,286047000.8,N
1630691535.6,286046998.2,N
1630691555.4,286046998.6,N
1630691575.3,286046998.7,N
1630691595.1,286046999.4,N
1630691615.9,286046999.2,N
1630691635.7,286046999.2,N
1630691655.5,286046998.6,N
1630691675.4,286046999.1,N
1630691695.2,286046999.2,N
1630691715.0,286046999.0,N
1630691715.9,286046999.0,N
1630691735.8,286046999.2,N
1630691755.6,286046999.4,N
1630691775.5,286046997.0,Y
1630691795.3,286046999.2,P
1630691815.1,286046999.5,N
1630691835.9,286046996.5,P
1630691855.7,286046996.7,N
1630691875.5,286046996.8,N
1630691895.4,286046997.2,N
1630691915.2,286046997.8,N
1630691935.0,286046997.3,N
1630691936.0,286046997.3,N
1630691955.8,286046997.4,N
1630691975.6,286046997.5,N
1630691995.5,286046997.6,N
